Weather in Kinel

Russia / Samara Oblast     53°13′15″N   50°38′03″E
temp.,
°C
wind,
m/s
gust,
m/s
humid.,
%
clouds,
%
prec.,
mm/h
press.,
hPa
HPBL,
m
27 february, sat
sat2701:00−10sse71594100 4.3 1004619
04:00−7sse61095100 8.7 1001404
07:00−4sse2498100 0.3 999129
10:00+1wsw49100100 0.5 998449
13:00+1wsw61010099 0.1 998500
16:00+1wsw59100100 0.1 998450
19:000wsw4798100 0.4 997358
22:000wsw3699100 1.4 997222
28 february, sun
sun2801:00−6nnw71093100 0.9 998265
04:00−10nnw61291100 1.1 1000364
07:00−12nw5119198 0.1 1002423
10:00−11nnw6109099 0.2 1005521
13:00−10nw6989100 0.1 1007594
16:00−11nw6989100 0.2 1010538
19:00−14nw4109299 0.1 1012394
22:00−16nnw389398 0.1 1014278
1 march, mon
mon101:00−19nw349481 0.0 101664
04:00−21nw339552 0.0 101839
07:00−22nw33960 0.0 101939
10:00−19nnw35920 0.0 1021229
13:00−16nnw35901 0.0 1022303
16:00−15nnw35901 0.0 1022319
19:00−20nw22960 0.0 102320
22:00−21wnw22970 0.0 102420
2 march, tue
tue201:00−22w22980 0.0 102320
04:00−22sw23960 0.0 102120
07:00−21ssw349951 0.0 101972
10:00−16ssw599475 0.0 1016303
13:00−11ssw71194100 0.3 1013456
16:00−7ssw81392100 0.8 1009648
19:00−5ssw61395100 0.4 1005593
22:00−3ssw61296100 1.3 1003563
3 march, wed
wed301:00−3ssw51096100 0.8 1001380
04:00−3sw3697100 1.3 1000206
07:00−6w339684 0.1 100057
10:00−2nw6109288 0.4 1001752
13:00−3nw71188100 0.1 1002709
16:00−3nw71188100 0.1 1004742
19:00−4nw51191100 0.0 1005738
22:00−6nw41192100 0.1 1008321